Time,TemperatureF,DewpointF,PressureIn,WindDirection,WindDirectionDegrees,WindSpeedMPH,WindSpeedGustMPH,Humidity,HourlyPrecipIn,Conditions,Clouds,dailyrainin,SoftwareType,DateUTC
2015-08-28 00:07:00,63.8,58.0,30.01,WNW,292,0.0,-999.0,82,-99.99,,,0.00,weatherlink.com 1.10,2015-08-28 04:07:00,
2015-08-28 00:21:00,63.6,58.0,30.02,WNW,292,0.0,-999.0,82,-99.99,,,0.00,weatherlink.com 1.10,2015-08-28 04:21:00,
2015-08-28 00:36:00,64.0,58.0,30.02,WNW,292,0.0,-999.0,81,-99.99,,,0.00,weatherlink.com 1.10,2015-08-28 04:36:00,
2015-08-28 00:52:00,63.9,58.0,30.02,WNW,292,0.0,-999.0,81,-99.99,,,0.00,weatherlink.com 1.10,2015-08-28 04:52:00,
2015-08-28 01:07:00,63.9,58.0,30.02,WNW,292,0.0,-999.0,81,-99.99,,,0.00,weatherlink.com 1.10,2015-08-28 05:07:00,
2015-08-28 01:22:00,63.9,58.0,30.02,WNW,292,0.0,-999.0,80,-99.99,,,0.00,weatherlink.com 1.10,2015-08-28 05:22:00,
2015-08-28 01:37:00,64.0,58.0,30.02,WNW,292,0.0,-999.0,80,-99.99,,,0.00,weatherlink.com 1.10,2015-08-28 05:37:00,
2015-08-28 01:52:00,63.6,58.0,30.02,WNW,292,0.0,-999.0,81,-99.99,,,0.00,weatherlink.com 1.10,2015-08-28 05:52:00,
2015-08-28 02:07:00,63.3,58.0,30.02,WNW,292,0.0,-999.0,82,-99.99,,,0.00,weatherlink.com 1.10,2015-08-28 06:07:00,
2015-08-28 02:22:00,62.9,57.0,30.02,WNW,292,0.0,-999.0,82,-99.99,,,0.00,weatherlink.com 1.10,2015-08-28 06:22:00,
2015-08-28 02:37:00,62.6,57.0,30.02,WNW,292,0.0,-999.0,83,-99.99,,,0.00,weatherlink.com 1.10,2015-08-28 06:37:00,
2015-08-28 02:52:00,62.3,57.0,30.02,WNW,293,0.0,-999.0,84,-99.99,,,0.00,weatherlink.com 1.10,2015-08-28 06:52:00,
2015-08-28 03:07:00,62.0,57.0,30.03,WNW,292,0.0,-999.0,84,-99.99,,,0.00,weatherlink.com 1.10,2015-08-28 07:07:00,
2015-08-28 03:22:00,61.6,57.0,30.03,WNW,292,0.0,-999.0,85,-99.99,,,0.00,weatherlink.com 1.10,2015-08-28 07:22:00,
2015-08-28 03:37:00,61.2,57.0,30.03,WNW,292,0.0,-999.0,85,-99.99,,,0.00,weatherlink.com 1.10,2015-08-28 07:37:00,
2015-08-28 03:52:00,60.9,56.0,30.03,WNW,293,0.0,-999.0,85,-99.99,,,0.00,weatherlink.com 1.10,2015-08-28 07:52:00,
2015-08-28 04:07:00,60.3,56.0,30.03,WNW,292,0.0,-999.0,86,-99.99,,,0.00,weatherlink.com 1.10,2015-08-28 08:07:00,
2015-08-28 04:22:00,59.9,56.0,30.03,WNW,292,0.0,-999.0,87,-99.99,,,0.00,weatherlink.com 1.10,2015-08-28 08:22:00,
2015-08-28 04:37:00,59.8,56.0,30.04,WNW,293,0.0,-999.0,88,-99.99,,,0.00,weatherlink.com 1.10,2015-08-28 08:37:00,
2015-08-28 04:52:00,59.6,56.0,30.04,WNW,292,0.0,-999.0,88,-99.99,,,0.00,weatherlink.com 1.10,2015-08-28 08:52:00,
2015-08-28 05:07:00,59.5,56.0,30.04,WNW,292,0.0,-999.0,88,-99.99,,,0.00,weatherlink.com 1.10,2015-08-28 09:07:00,
2015-08-28 05:22:00,59.5,56.0,30.04,WNW,292,0.0,-999.0,88,-99.99,,,0.00,weatherlink.com 1.10,2015-08-28 09:22:00,
2015-08-28 05:37:00,59.6,56.0,30.04,WNW,293,0.0,-999.0,88,-99.99,,,0.00,weatherlink.com 1.10,2015-08-28 09:37:00,
2015-08-28 05:52:00,59.9,56.0,30.04,WNW,293,0.0,-999.0,87,-99.99,,,0.00,weatherlink.com 1.10,2015-08-28 09:52:00,
2015-08-28 06:07:00,59.9,56.0,30.05,WNW,292,0.0,-999.0,86,-99.99,,,0.00,weatherlink.com 1.10,2015-08-28 10:07:00,
2015-08-28 06:22:00,60.0,56.0,30.05,WNW,293,0.0,-999.0,86,-99.99,,,0.00,weatherlink.com 1.10,2015-08-28 10:22:00,
2015-08-28 06:37:00,60.2,56.0,30.06,WNW,292,0.0,-999.0,86,-99.99,,,0.00,weatherlink.com 1.10,2015-08-28 10:37:00,
2015-08-28 06:52:00,60.4,56.0,30.06,WNW,293,0.0,-999.0,85,-99.99,,,0.00,weatherlink.com 1.10,2015-08-28 10:52:00,
2015-08-28 07:07:00,60.9,56.0,30.07,WNW,288,0.0,-999.0,85,-99.99,,,0.00,weatherlink.com 1.10,2015-08-28 11:07:00,
2015-08-28 07:22:00,61.6,57.0,30.07,NNW,329,0.0,-999.0,84,-99.99,,,0.00,weatherlink.com 1.10,2015-08-28 11:22:00,
2015-08-28 07:37:00,62.2,57.0,30.07,WNW,292,2.0,-999.0,83,-99.99,,,0.00,weatherlink.com 1.10,2015-08-28 11:37:00,
2015-08-28 07:52:00,62.9,57.0,30.08,NE,54,3.0,-999.0,81,-99.99,,,0.00,weatherlink.com 1.10,2015-08-28 11:52:00,
2015-08-28 08:07:00,63.6,57.0,30.08,NNE,15,0.0,-999.0,80,-99.99,,,0.00,weatherlink.com 1.10,2015-08-28 12:07:00,
2015-08-28 08:22:00,64.1,57.0,30.08,NNE,31,0.0,-999.0,79,-99.99,,,0.00,weatherlink.com 1.10,2015-08-28 12:22:00,
2015-08-28 08:37:00,64.8,58.0,30.09,WNW,284,0.0,-999.0,78,-99.99,,,0.00,weatherlink.com 1.10,2015-08-28 12:37:00,
2015-08-28 08:52:00,65.5,58.0,30.08,WNW,288,0.0,-999.0,78,-99.99,,,0.00,weatherlink.com 1.10,2015-08-28 12:52:00,
2015-08-28 09:07:00,66.2,58.0,30.09,West,279,0.0,-999.0,76,-99.99,,,0.00,weatherlink.com 1.10,2015-08-28 13:07:00,
2015-08-28 09:22:00,66.8,59.0,30.09,WNW,292,0.0,-999.0,75,-99.99,,,0.00,weatherlink.com 1.10,2015-08-28 13:22:00,
2015-08-28 09:37:00,67.7,59.0,30.09,WNW,293,0.0,-999.0,74,-99.99,,,0.00,weatherlink.com 1.10,2015-08-28 13:37:00,
2015-08-28 09:52:00,68.5,59.0,30.09,NNW,331,0.0,-999.0,71,-99.99,,,0.00,weatherlink.com 1.10,2015-08-28 13:52:00,
2015-08-28 10:08:00,69.3,59.0,30.09,NNW,331,0.0,-999.0,70,-99.99,,,0.00,weatherlink.com 1.10,2015-08-28 14:08:00,
2015-08-28 10:23:00,70.1,59.0,30.09,NNW,331,0.0,-999.0,67,-99.99,,,0.00,weatherlink.com 1.10,2015-08-28 14:23:00,
2015-08-28 10:38:00,70.7,59.0,30.09,NNW,331,0.0,-999.0,67,-99.99,,,0.00,weatherlink.com 1.10,2015-08-28 14:38:00,
2015-08-28 10:53:00,71.7,59.0,30.09,NNW,327,0.0,-999.0,64,-99.99,,,0.00,weatherlink.com 1.10,2015-08-28 14:53:00,
2015-08-28 11:08:00,72.8,59.0,30.09,NW,326,0.0,-999.0,62,-99.99,,,0.00,weatherlink.com 1.10,2015-08-28 15:08:00,
2015-08-28 11:23:00,73.7,59.0,30.09,North,5,0.0,-999.0,60,-99.99,,,0.00,weatherlink.com 1.10,2015-08-28 15:23:00,